Wetterdaten: aktuell Mittwoch, 18.05.2022 07:45
Datum Zeit Temp 2m Wasser SB Wasser NSB Temp 2m ob Temp 10cm Regen Wind mittel Richtung Richtung Taupunkt Windben
18.05.2022 07:45 15,9 C 21,4 C 20,4 C 15,9 C 15,9 C 0,0 l/m 0,0 km/h SO 135 13,7 C 0,0 km/h
18.05.2022 07:40 15,7 C 21,3 C 20,4 C 15,8 C 15,7 C 0,0 l/m 0,0 km/h W-SW 247 13,5 C 0,0 km/h
18.05.2022 07:35 15,6 C 21,3 C 20,4 C 15,7 C 15,5 C 0,0 l/m 0,0 km/h O-SO 112 13,4 C 0,0 km/h
18.05.2022 07:30 15,5 C 21,3 C 20,4 C 15,6 C 15,5 C 0,0 l/m 0,0 km/h O-SO 112 13,5 C 0,0 km/h
18.05.2022 07:25 15,5 C 21,4 C 20,4 C 15,5 C 15,4 C 0,0 l/m 0,0 km/h O-NO 67 13,5 C 0,0 km/h
18.05.2022 07:20 15,3 C 21,3 C 20,4 C 15,4 C 15,3 C 0,0 l/m 0,0 km/h N-NO 22 13,1 C 0,0 km/h
18.05.2022 07:15 15,3 C 21,3 C 20,5 C 15,3 C 15,2 C 0,0 l/m 0,0 km/h S-SO 157 13,1 C 0,0 km/h
18.05.2022 07:10 15,2 C 21,4 C 20,5 C 15,2 C 15,1 C 0,0 l/m 0,2 km/h N-NO 22 13,0 C 0,0 km/h
18.05.2022 07:05 15,1 C 21,3 C 20,5 C 15,1 C 15,0 C 0,0 l/m 0,2 km/h S 180 13,0 C 0,0 km/h
18.05.2022 07:00 15,1 C 21,4 C 20,5 C 15,1 C 14,9 C 0,0 l/m 0,5 km/h S-SW 202 13,0 C 0,0 km/h
18.05.2022 06:55 15,0 C 21,4 C 20,5 C 15,0 C 14,8 C 0,0 l/m 0,6 km/h N-NO 22 12,9 C 0,0 km/h
18.05.2022 06:50 15,0 C 21,2 C 20,4 C 15,0 C 14,8 C 0,0 l/m 0,5 km/h S-SO 157 12,9 C 3,4 km/h
18.05.2022 06:45 15,0 C 21,4 C 20,5 C 14,9 C 14,8 C 0,0 l/m 0,0 km/h S 180 12,9 C 0,0 km/h
18.05.2022 06:40 14,9 C 21,4 C 20,5 C 14,9 C 14,8 C 0,0 l/m 0,0 km/h N 360 12,8 C 0,0 km/h
18.05.2022 06:35 14,9 C 21,4 C 20,5 C 14,9 C 14,7 C 0,0 l/m 0,0 km/h N-NW 337 12,8 C 0,0 km/h
18.05.2022 06:30 14,8 C 21,4 C 20,5 C 14,8 C 14,6 C 0,0 l/m 0,0 km/h N-NW 337 12,7 C 0,0 km/h
18.05.2022 06:25 14,7 C 21,3 C 20,5 C 14,8 C 14,6 C 0,0 l/m 0,0 km/h S-SW 202 12,7 C 0,0 km/h
18.05.2022 06:20 14,7 C 21,3 C 20,5 C 14,7 C 14,5 C 0,0 l/m 0,0 km/h SW 225 12,6 C 0,0 km/h
18.05.2022 06:15 14,6 C 21,3 C 20,5 C 14,7 C 14,4 C 0,0 l/m 0,0 km/h S-SW 202 12,6 C 0,0 km/h
18.05.2022 06:10 14,6 C 21,3 C 20,5 C 14,6 C 14,4 C 0,0 l/m 0,0 km/h S-SW 202 12,5 C 0,0 km/h
18.05.2022 06:05 14,5 C 21,4 C 20,5 C 14,7 C 14,4 C 0,0 l/m 0,0 km/h S-SO 157 12,4 C 0,0 km/h
18.05.2022 06:00 14,5 C 21,4 C 20,5 C 14,6 C 14,3 C 0,0 l/m 0,0 km/h SW 225 12,4 C 0,0 km/h
18.05.2022 05:55 14,5 C 21,4 C 20,5 C 14,7 C 14,3 C 0,0 l/m 0,0 km/h S-SO 157 12,4 C 0,0 km/h
18.05.2022 05:50 14,5 C 21,3 C 20,5 C 14,6 C 14,2 C 0,0 l/m 0,0 km/h S-SO 157 12,4 C 0,0 km/h
18.05.2022 05:45 14,5 C 21,3 C 20,5 C 14,6 C 14,3 C 0,0 l/m 0,0 km/h S-SO 157 12,4 C 0,0 km/h
18.05.2022 05:40 14,5 C 21,4 C 20,5 C 14,6 C 14,3 C 0,0 l/m 0,0 km/h S-SO 157 12,4 C 0,0 km/h
_ Min-Zeit 08:05 08:00 10:20 08:00 08:00 - 08:00 - - 23:30 08:00
Minimum _ 14,0 C 20,6 C 19,0 C 13,7 C 14,0 C - 0,0 km/h - - 12,3 C 0,0 km/h
_ Max-Zeit 16:45 17:15 17:15 16:45 13:30 08:00 15:40 - - 11:10 14:00
Maximum _ 23,8 C 22,3 C 21,9 C 25,9 C 24,0 C 0,0 l/m 6,0 km/h
NW
- - 15,6 C 15,4 km/h
N-NW
Durchschnitt _ 17,7 C 21,5 C 20,8 C 18,7 C 17,9 C #0,0 l/m 1,5 km/h N-NW - 13,4 C 2,2 km/h